User: anonymous   Login
Location: Asheville, NC
(35.6000°N, 82.5500°W)
Time: 20:55:17
(UTC-05:00)
Language:

TIGRISAT - Orbit

View from above orbital plane
View from above orbital plane
View from above satellite
View from above satellite

Ground track
Ground track

The orbit data is extracted from the following two-line orbital elements,

1 40043U 14033AK  18021.14592532  .00000151  00000-0  30007-4 0  9996
2 40043  97.8295 263.6381 0059193 313.6309  45.9999 14.74087365192949
Epoch (UTC): 21 January 2018 03:30:07
Eccentricity: 0.0059193
inclination: 97.8295°
perigee height: 606 km
apogee height: 689 km
right ascension of ascending node: 263.6381°
argument of perigee: 313.6309°
revolutions per day: 14.74087365
mean anomaly at epoch: 45.9999°
orbit number at epoch: 19294

The dashed part of the orbit path shows where the satellite is in the earth's shadow,  

DLR